Temperature
13 13 14 15 13 11 12 13 13 14 14 15 16 16 15 15 16 16 16 16 17 17 17 16 16 17 17 17 16 16 16 16 16 16 16 16 16 16 16 16 16 16 16 16 15 15 15 15 15
13 13 14 14 11 12 12 13 13 14 15 15 16 16 15 15 15 15 16 16 16 16 16 16 16 16 17 16 16 16 16 16 16 16 16 16 16 16 16 16 16 16 15 15 15 15 15 15 15
13 13 13 11 11 12 13 13 13 14 15 15 15 15 14 14 15 15 15 16 16 16 16 16 16 16 16 16 16 16 16 16 16 16 16 16 16 16 16 16 16 15 15 15 15 15 15 14 14
13 13 12 11 11 12 13 13 13 13 15 15 14 13 14 14 14 15 15 15 16 16 16 16 16 16 16 16 16 16 16 16 16 16 16 16 16 16 16 16 16 15 15 15 15 15 14 14 14
12 12 10 11 11 12 11 13 13 13 13 13 13 12 13 14 14 14 15 15 15 16 16 15 16 16 16 16 16 16 16 16 16 16 16 16 16 16 16 15 15 15 15 15 14 14 14 14 14
12 10 10 10 11 12 12 13 13 12 12 13 13 12 13 14 14 14 14 15 15 15 15 15 15 15 16 16 15 16 16 16 16 16 16 16 16 16 15 15 15 15 15 14 14 14 14 14 14
11 9 10 10 11 12 12 13 13 12 11 12 13 12 12 13 14 14 14 14 14 15 15 15 15 15 15 15 15 15 16 16 16 16 16 16 15 15 15 15 15 15 15 14 14 14 14 14 13
11 9 10 10 10 11 12 13 13 13 12 13 13 12 12 13 13 13 14 14 14 14 15 15 15 15 15 15 15 15 15 15 15 15 15 15 15 15 15 15 15 15 14 14 14 14 14 13 13
11 9 9 10 10 11 12 12 12 12 12 12 12 12 12 12 13 13 13 14 14 14 14 14 14 14 14 14 14 15 15 15 15 15 15 15 15 15 15 15 15 15 14 14 14 14 13 13 13
10 9 10 10 10 11 11 11 12 11 11 10 11 12 12 12 12 13 13 13 13 14 14 14 14 14 14 14 14 14 14 14 15 15 15 15 15 15 15 15 14 14 14 14 13 13 13 13 13
9 9 10 10 11 11 11 11 11 11 10 10 11 11 12 12 12 12 12 12 13 13 13 13 14 14 14 14 14 14 14 14 14 14 14 14 14 14 14 14 14 14 14 13 13 13 13 13 13
8 9 10 10 11 11 10 10 10 10 11 12 12 12 11 11 11 12 12 12 12 13 13 13 13 13 14 14 14 14 14 14 14 14 14 14 14 14 14 14 14 13 13 13 13 13 13 12 12
8 8 9 10 10 10 10 10 10 9 10 11 11 11 11 11 11 11 12 12 12 12 13 13 13 13 13 13 13 13 14 14 14 14 14 14 14 13 13 13 13 13 13 13 13 13 12 12 12
8 8 9 9 10 10 9 9 9 9 10 10 10 10 10 10 11 11 11 12 12 12 12 12 12 12 12 13 13 13 13 13 13 13 13 13 13 13 13 13 13 13 13 13 12 12 12 12 12
8 8 8 8 9 9 10 8 8 9 9 9 9 9 9 10 10 11 11 11 11 11 12 12 12 12 12 12 12 12 13 13 13 13 13 13 13 13 13 13 13 13 12 12 12 12 12 12 11
8 7 7 8 8 9 9 8 8 8 8 8 8 8 9 9 10 10 10 10 11 11 11 11 12 12 12 12 12 12 12 12 12 12 12 12 12 12 12 12 12 12 12 12 12 12 11 11 11
6 6 7 7 8 8 8 7 7 8 8 7 7 8 8 8 9 9 10 10 10 11 11 11 11 11 11 11 11 12 11 12 12 12 12 12 12 12 12 12 12 12 12 12 11 11 11 11 11
6 6 6 6 7 7 7 7 7 7 7 7 7 7 7 8 8 9 9 9 10 10 10 11 11 11 11 11 11 11 11 11 11 11 11 11 11 11 11 11 11 11 11 11 11 11 11 11 10
6 6 6 6 7 7 7 7 6 7 6 6 6 6 7 7 8 8 9 9 9 10 10 10 10 10 10 11 11 11 11 11 11 11 11 11 11 11 11 11 11 11 11 11 11 11 10 10 10
6 6 6 6 7 7 6 6 6 6 6 6 6 6 7 7 7 8 8 9 9 9 9 10 10 10 10 10 10 10 10 10 10 10 10 10 10 10 10 10 10 10 11 11 10 10 10 10 9
6 6 6 6 6 6 6 7 6 6 6 6 6 6 6 7 7 7 8 8 8 9 9 9 9 9 9 10 10 10 10 10 10 10 10 10 10 10 10 10 10 10 10 10 10 9 9 9 9
6 6 6 6 6 5 6 6 6 5 5 5 5 6 6 6 7 7 8 8 8 8 8 8 9 9 9 9 9 9 9 9 9 9 9 9 9 9 9 9 9 9 9 9 9 9 9 9 8
5 5 6 5 5 5 5 5 5 4 5 5 5 5 6 7 7 7 7 8 8 8 8 8 8 8 8 9 9 9 9 9 9 9 9 9 9 9 9 9 9 9 9 9 9 9 8 8 8
5 5 5 4 4 5 5 5 5 4 5 5 5 5 6 6 7 7 7 7 7 8 8 8 8 8 8 8 8 8 8 8 8 8 9 9 9 9 9 8 8 9 9 9 8 8 8 8 8
4 4 4 4 4 4 4 4 4 5 4 4 4 5 6 6 6 7 7 7 7 7 7 7 7 8 8 8 8 8 8 8 8 8 8 8 8 8 8 8 8 8 8 8 8 8 8 8 7
4 4 4 5 4 4 4 4 4 4 4 4 5 5 5 5 6 6 6 7 7 7 7 7 7 7 7 7 7 7 7 7 7 7 7 8 8 8 8 8 8 8 8 8 8 8 7 7 7
4 3 4 3 3 3 3 3 3 3 3 3 3 4 4 5 5 6 6 6 6 6 7 7 7 7 7 7 7 7 7 7 7 7 7 7 7 7 7 7 7 7 7 7 7 7 7 7 6
4 3 2 3 3 4 4 3 3 3 3 2 2 2 3 4 5 5 6 6 6 6 6 6 6 6 6 6 6 6 6 6 6 6 6 7 7 7 6 7 7 7 7 7 7 7 6 6 6
3 3 2 2 2 3 4 4 3 2 2 2 2 2 3 3 4 5 5 5 5 5 5 5 6 6 6 6 6 6 6 6 6 6 6 6 6 6 6 6 6 6 6 6 6 6 6 6 6
3 2 2 3 2 1 2 3 3 2 2 2 2 2 3 3 4 4 4 5 5 5 5 5 5 5 5 5 5 5 5 5 6 6 6 6 6 6 5 5 6 6 6 6 6 6 5 5 5
Wind_Speed
4 3 3 3 4 2 5 5 3 2 3 1 1 4 6 5 4 3 1 3 5 5 7 11 12 12 12 12 13 13 14 14 14 14 14 13 13 13 12 12 12 11 11 10 10 10 11 11 11
1 2 4 3 4 4 5 5 5 4 3 1 2 3 4 1 1 2 1 2 5 6 7 9 12 12 13 12 12 13 13 13 13 13 13 13 12 12 12 11 11 11 10 10 10 10 10 10 10
1 3 3 3 4 8 5 4 5 2 0 1 2 3 2 1 1 1 0 3 5 5 7 9 12 12 12 12 12 12 13 13 13 13 12 12 12 12 12 11 11 10 10 10 9 9 10 9 9
2 3 3 2 7 6 4 2 3 1 2 2 2 2 1 2 1 1 2 5 6 5 7 9 12 11 11 12 12 12 12 12 12 12 12 12 11 11 11 11 10 10 10 9 9 9 9 9 9
3 3 2 4 7 4 3 2 1 1 0 1 3 2 1 3 3 4 4 5 6 5 6 8 11 11 11 11 12 11 11 12 12 12 12 12 11 11 11 11 10 10 9 9 9 9 8 8 8
2 2 4 7 7 4 2 2 1 1 1 1 3 2 0 2 4 4 5 4 5 6 7 7 9 9 10 10 11 11 11 11 11 11 11 11 11 11 10 10 10 9 9 9 8 8 8 8 8
3 3 5 5 4 3 2 0 2 2 1 2 2 3 0 1 2 3 4 5 6 7 7 7 7 8 9 9 10 10 10 10 10 11 11 11 11 10 10 9 9 8 8 8 8 8 8 8 8
3 3 3 4 4 4 1 0 0 2 2 1 2 4 3 2 2 4 5 6 6 6 6 7 8 8 8 8 9 9 10 10 10 10 10 10 10 10 9 9 8 8 8 8 8 8 8 8 8
3 2 5 5 4 3 1 0 1 1 3 1 1 1 2 5 5 6 5 5 5 5 5 6 6 8 7 7 7 8 8 9 9 9 9 10 9 9 8 8 8 8 7 7 7 8 8 8 8
3 4 6 4 4 3 1 1 1 2 1 1 2 2 3 6 7 7 6 5 4 3 3 4 5 6 6 6 7 7 7 7 8 8 8 8 8 8 7 7 8 7 7 7 7 8 8 8 7
2 5 3 3 2 1 1 1 0 4 2 3 4 4 5 6 7 6 5 4 4 3 3 3 4 5 5 5 5 5 6 6 7 7 7 8 8 7 6 6 6 6 6 6 6 7 6 6 6
2 2 2 3 1 0 1 0 1 0 3 2 4 8 8 7 7 6 5 4 3 3 3 2 3 4 5 5 4 4 4 5 4 5 6 6 5 4 4 4 4 5 4 5 5 4 5 5 5
2 1 2 1 2 1 1 1 1 2 2 2 5 7 7 6 5 4 4 4 3 3 3 2 3 3 4 4 3 3 3 4 4 5 5 6 4 3 3 3 4 4 4 4 3 3 3 3 4
2 2 2 2 2 2 0 2 1 2 1 4 6 6 5 5 4 3 3 3 2 2 2 2 3 3 4 3 2 2 3 4 5 4 4 5 5 4 3 2 3 3 3 3 3 2 2 2 3
1 1 3 3 1 1 1 3 1 2 3 4 4 4 3 3 3 3 2 3 2 2 2 2 3 3 3 3 2 3 3 4 4 4 4 5 5 4 3 2 2 2 3 4 4 3 3 2 3
2 1 2 3 1 1 2 4 2 1 5 4 3 3 3 2 2 1 1 1 2 2 2 2 2 3 3 3 3 3 3 4 4 4 4 4 4 4 4 3 2 2 4 3 2 2 2 2 2
2 1 3 3 1 1 2 3 2 0 4 3 3 3 2 1 1 2 2 1 2 2 3 3 3 3 3 3 3 4 4 4 4 5 4 4 4 5 4 3 2 3 3 2 2 2 2 1 2
2 2 2 3 2 1 2 3 2 1 3 3 2 2 2 2 1 0 1 2 2 2 3 3 3 3 3 3 3 3 4 4 4 4 4 4 4 4 4 3 2 3 2 2 2 2 2 1 1
2 1 2 3 2 0 3 3 2 1 2 2 2 2 2 2 0 1 2 2 3 3 3 3 3 3 3 2 2 2 1 1 2 3 3 4 4 3 3 2 2 2 2 2 2 2 2 2 2
1 1 2 2 2 0 1 2 2 1 3 3 4 4 3 1 0 1 1 2 2 2 2 2 2 2 2 1 1 1 1 0 1 2 3 3 3 3 3 2 2 2 2 2 2 2 2 1 2
2 3 3 2 3 2 1 2 2 1 1 1 1 2 3 3 2 1 1 0 1 1 1 1 1 2 2 2 3 3 2 2 1 2 1 2 2 3 3 3 2 2 2 2 1 2 2 2 0
2 1 1 1 1 2 1 2 4 2 2 2 3 2 3 3 3 2 2 1 1 1 1 1 2 2 2 3 3 4 2 1 1 1 0 1 2 3 3 3 3 2 2 2 1 1 1 3 1
0 2 0 0 1 1 1 2 5 0 3 5 5 4 4 3 4 4 3 2 1 0 1 1 2 2 2 2 2 3 2 1 1 1 1 1 2 3 3 2 2 2 1 1 2 1 1 2 2
1 3 3 3 3 1 3 3 5 3 5 4 4 4 4 3 3 2 1 1 1 2 2 2 2 2 1 2 2 2 2 2 2 2 1 0 0 1 3 2 2 1 1 1 1 2 2 2 2
4 3 3 3 2 4 1 2 6 4 3 3 4 4 3 3 2 1 1 1 1 1 1 1 2 1 1 1 1 1 1 2 2 1 1 0 0 0 1 2 1 1 1 0 1 2 2 2 2
1 2 3 2 3 3 0 4 5 3 2 1 1 1 0 1 1 1 1 1 1 1 1 1 1 0 0 0 0 1 1 1 1 1 1 1 1 1 1 1 1 1 1 1 1 1 1 1 2
2 1 1 2 1 1 3 4 5 3 4 3 2 2 2 1 0 0 1 1 1 0 1 1 1 0 0 0 0 0 0 0 1 1 1 1 0 0 1 1 1 1 1 1 1 0 1 1 2
2 3 3 2 1 2 4 3 3 4 3 3 3 2 2 2 2 2 1 0 1 0 0 0 0 1 0 0 0 0 0 1 1 0 1 0 0 0 0 0 0 1 1 1 0 1 1 1 1
2 2 2 2 2 2 2 5 2 3 2 2 2 2 2 2 1 2 2 1 1 1 1 1 1 1 1 0 0 0 0 0 0 0 1 1 0 0 1 1 0 0 0 0 0 1 1 1 1
2 2 3 2 2 2 2 5 2 2 2 1 2 2 2 2 1 1 2 2 2 2 2 1 1 1 1 1 0 0 1 0 0 1 1 0 1 1 1 1 1 1 1 1 1 1 1 1 2
Wind_Direction
325 11 63 59 67 77 225 236 212 234 224 230 154 138 146 151 159 180 11 99 111 129 136 143 146 143 138 134 131 127 124 122 120 119 117 115 113 110 107 103 98 95 93 91 89 87 86 85 83
358 49 59 72 128 195 241 230 208 220 205 122 54 82 101 124 54 94 84 96 112 125 132 135 138 141 139 136 132 131 127 125 123 121 119 118 117 114 110 106 101 98 94 92 91 89 87 86 84
69 63 98 111 175 200 219 221 210 238 260 77 68 53 108 124 83 120 147 123 104 108 118 134 133 133 137 136 134 130 130 127 124 123 123 122 121 117 113 108 104 100 96 93 91 90 89 86 85
85 64 74 148 213 221 213 230 195 210 14 48 96 66 19 21 301 177 127 118 109 94 105 126 130 130 132 132 133 131 128 128 126 126 125 124 122 119 114 110 105 101 97 95 93 90 89 86 85
72 108 150 217 230 242 237 254 178 156 196 58 112 110 355 354 41 92 107 112 115 96 90 119 129 130 129 132 130 129 128 126 128 128 126 123 120 116 112 108 104 100 97 94 93 91 91 88 87
95 113 171 216 230 255 258 256 141 102 95 89 108 114 211 34 54 83 98 102 103 101 86 100 121 127 128 127 130 126 124 126 128 129 127 123 121 118 114 110 106 103 99 96 94 92 90 87 85
150 153 198 205 219 239 244 242 150 148 142 207 155 123 202 16 45 86 97 92 87 86 81 77 91 109 118 121 120 123 122 122 124 128 127 124 121 120 116 112 110 106 101 97 94 92 88 84 83
146 139 195 209 205 231 246 259 190 161 200 181 121 139 188 216 116 97 98 98 91 76 72 68 73 84 94 100 110 112 118 119 118 122 125 122 120 118 116 113 111 108 102 97 93 91 87 82 81
119 156 211 212 197 226 262 242 342 55 110 52 359 209 198 148 133 110 99 92 82 74 66 66 67 71 82 93 102 105 111 115 114 113 119 116 110 110 111 112 112 109 101 95 92 89 85 80 74
141 198 219 216 200 205 263 232 190 109 73 24 357 2 109 140 140 130 123 127 117 96 73 67 70 73 75 89 90 90 94 102 107 108 111 111 110 109 109 111 110 106 98 92 87 86 81 72 67
167 202 218 247 237 218 249 306 168 143 202 214 193 166 149 147 144 141 139 140 145 132 94 72 68 77 80 82 88 84 86 88 97 106 111 110 103 102 100 97 95 92 89 77 75 71 68 68 68
182 258 246 253 274 286 223 249 41 166 239 222 166 154 152 154 156 155 150 143 130 116 98 82 63 68 75 85 91 94 91 89 89 105 115 110 100 94 95 91 88 85 83 75 70 67 63 65 69
217 251 288 306 13 10 43 318 178 304 314 79 116 130 148 157 157 152 139 128 121 119 102 94 78 72 72 81 85 101 102 105 107 107 118 118 111 116 107 97 93 86 85 79 70 66 63 60 59
199 237 292 323 322 312 73 317 67 292 25 97 119 135 149 152 148 133 125 122 122 123 118 105 100 80 77 78 81 104 113 109 105 104 115 120 114 111 109 107 97 83 86 87 83 81 73 65 64
114 12 319 307 287 262 81 330 278 263 115 116 133 138 130 120 125 138 152 145 140 138 117 110 105 79 82 78 83 88 107 108 103 99 107 112 112 115 109 102 103 89 90 86 77 69 69 68 62
47 54 286 301 326 314 125 256 282 150 130 143 154 142 138 118 112 96 80 93 107 113 110 109 93 87 82 72 75 79 86 96 93 90 90 96 103 108 106 99 98 96 96 92 99 89 73 60 55
46 172 236 297 338 43 145 234 271 142 140 160 172 156 146 120 59 43 46 61 99 116 117 99 90 94 83 69 71 77 71 75 77 83 82 82 91 100 99 98 94 99 94 93 104 101 100 90 60
212 196 223 245 294 67 190 233 284 220 158 171 175 155 151 162 219 5 50 37 62 82 95 91 84 86 81 74 66 68 61 57 62 66 74 87 86 96 99 90 84 91 96 96 99 108 80 97 84
179 180 255 257 266 163 203 221 270 233 170 176 171 164 183 220 286 69 66 54 58 62 70 78 74 80 91 89 91 91 69 49 60 47 59 78 80 87 97 102 104 101 120 131 124 121 98 56 52
171 202 274 306 346 185 188 255 272 222 198 189 193 200 199 208 35 78 69 53 59 81 85 84 78 74 89 101 119 110 115 84 69 42 40 55 76 84 88 88 125 124 114 90 95 107 105 65 57
303 211 223 275 347 22 75 303 252 265 193 185 207 205 208 194 197 200 149 116 70 88 118 113 93 74 55 60 81 78 67 39 31 31 8 11 52 79 89 90 88 105 121 131 115 123 118 130 56
294 276 198 254 73 317 76 250 261 249 268 259 248 237 238 221 210 206 194 191 201 209 107 100 95 83 68 79 95 107 108 117 271 252 266 13 47 54 67 89 96 104 118 137 153 123 135 139 162
276 351 344 176 131 1 25 183 274 283 261 263 251 242 240 229 215 212 207 203 206 129 104 93 82 77 78 83 97 111 102 87 20 28 67 51 34 48 48 64 85 87 104 144 152 157 148 163 173
37 34 41 52 79 266 223 177 273 234 239 262 254 243 232 223 222 222 209 133 82 68 76 77 81 65 67 89 89 98 113 92 69 30 33 67 35 34 32 37 49 64 72 171 180 179 175 184 183
47 68 35 12 11 255 181 193 253 259 243 229 241 244 226 204 195 191 159 132 101 90 93 90 96 61 50 89 102 112 135 137 139 181 227 178 43 353 334 10 11 25 355 147 153 170 184 190 198
306 115 147 196 223 284 298 230 258 287 295 277 273 295 71 153 161 174 189 178 156 140 116 111 148 247 14 98 130 138 122 149 181 215 197 205 220 222 321 1 6 10 19 40 111 157 189 189 203
91 97 146 129 82 288 268 285 305 353 0 12 27 36 19 348 0 58 57 67 94 127 200 202 191 238 257 229 195 106 118 147 218 244 205 203 252 12 30 23 25 11 18 31 53 177 224 213 216
90 133 95 108 149 275 288 281 277 306 315 339 351 341 332 355 10 13 35 47 16 340 304 20 156 204 274 303 218 254 237 241 243 222 194 200 299 37 92 27 32 30 26 20 264 289 281 231 249
55 69 86 110 156 176 256 273 258 259 264 255 271 290 315 334 345 359 354 359 27 31 35 27 28 27 8 338 274 308 281 304 79 198 216 210 210 191 204 234 223 210 256 285 230 277 308 282 276
154 161 147 155 231 191 209 268 303 288 296 274 277 292 332 350 6 19 20 25 27 16 8 5 6 359 325 309 355 348 338 27 66 264 245 213 193 255 238 217 214 244 280 262 237 258 289 282 286
Height
1496 1497 1499 1502 1506 1514 1514 1508 1505 1503 1502 1500 1500 1500 1502 1505 1509 1513 1507 1506 1508 1510 1512 1515 1517 1519 1521 1523 1525 1526 1527 1529 1530 1531 1531 1532 1533 1533 1534 1534 1535 1535 1535 1536 1536 1536 1536 1536 1536
1495 1497 1500 1501 1509 1517 1512 1504 1503 1500 1498 1498 1499 1500 1501 1503 1504 1504 1504 1506 1508 1510 1512 1514 1517 1519 1521 1523 1525 1526 1528 1529 1530 1531 1532 1532 1533 1534 1534 1534 1535 1535 1535 1536 1536 1536 1536 1536 1536
1495 1497 1500 1502 1508 1510 1505 1500 1499 1498 1498 1498 1499 1500 1501 1503 1503 1504 1504 1506 1508 1511 1513 1515 1517 1519 1521 1523 1525 1526 1528 1529 1530 1531 1532 1533 1533 1534 1534 1534 1535 1535 1535 1536 1536 1536 1536 1536 1536
1494 1498 1500 1504 1504 1501 1499 1497 1496 1497 1497 1498 1499 1501 1502 1504 1504 1504 1505 1507 1509 1511 1513 1515 1517 1519 1521 1523 1524 1526 1528 1529 1530 1531 1532 1533 1533 1534 1534 1535 1535 1535 1535 1536 1536 1536 1536 1536 1536
1494 1496 1501 1503 1501 1498 1496 1496 1496 1496 1498 1498 1499 1501 1502 1504 1504 1504 1506 1507 1509 1511 1513 1515 1517 1519 1521 1523 1524 1526 1527 1529 1530 1531 1532 1533 1533 1534 1534 1535 1535 1535 1535 1536 1536 1536 1536 1536 1536
1493 1494 1502 1503 1500 1497 1496 1495 1496 1496 1498 1498 1499 1501 1502 1503 1503 1505 1506 1508 1510 1511 1513 1515 1517 1519 1521 1522 1524 1526 1527 1528 1530 1531 1532 1532 1533 1534 1534 1535 1535 1535 1535 1535 1536 1536 1536 1536 1536
1492 1496 1498 1499 1499 1497 1496 1495 1496 1497 1498 1499 1499 1501 1501 1503 1504 1505 1507 1508 1510 1512 1513 1515 1517 1519 1521 1522 1524 1525 1527 1528 1529 1530 1531 1532 1533 1533 1534 1534 1535 1535 1535 1535 1535 1535 1535 1535 1535
1490 1495 1497 1498 1498 1496 1495 1495 1495 1496 1497 1499 1499 1500 1501 1502 1503 1505 1507 1509 1511 1512 1513 1515 1517 1519 1520 1522 1523 1525 1526 1528 1529 1530 1531 1531 1532 1533 1534 1534 1534 1534 1534 1534 1535 1535 1535 1535 1535
1490 1496 1497 1496 1496 1495 1494 1494 1495 1496 1496 1497 1498 1499 1500 1501 1503 1505 1506 1508 1510 1512 1513 1515 1516 1518 1520 1521 1522 1524 1526 1527 1528 1529 1530 1531 1532 1532 1533 1533 1534 1534 1534 1534 1534 1534 1534 1535 1535
1489 1494 1492 1492 1492 1493 1493 1493 1494 1495 1496 1497 1497 1498 1500 1501 1503 1504 1505 1507 1508 1510 1512 1514 1516 1518 1519 1520 1522 1523 1525 1526 1527 1528 1529 1530 1531 1532 1532 1533 1533 1533 1534 1534 1534 1534 1534 1534 1534
1488 1490 1490 1490 1491 1491 1492 1493 1494 1494 1496 1495 1495 1496 1498 1500 1502 1504 1505 1507 1508 1510 1512 1513 1515 1517 1518 1520 1521 1522 1524 1525 1526 1528 1529 1529 1530 1531 1531 1532 1532 1533 1533 1533 1533 1533 1533 1533 1534
1489 1489 1489 1489 1490 1490 1491 1493 1494 1494 1494 1494 1495 1496 1497 1499 1501 1503 1504 1506 1508 1510 1511 1513 1514 1516 1517 1519 1520 1521 1522 1524 1525 1527 1528 1528 1529 1530 1530 1531 1531 1532 1532 1532 1532 1532 1533 1533 1533
1488 1489 1489 1489 1489 1490 1491 1492 1493 1494 1493 1494 1495 1496 1497 1499 1501 1503 1505 1506 1507 1509 1511 1512 1514 1515 1516 1518 1519 1520 1521 1522 1524 1525 1526 1527 1528 1529 1529 1530 1530 1531 1531 1531 1532 1532 1532 1532 1532
1488 1488 1489 1488 1488 1489 1490 1492 1493 1494 1494 1494 1495 1496 1498 1499 1500 1502 1504 1505 1507 1508 1510 1512 1513 1514 1515 1517 1518 1519 1520 1521 1522 1524 1525 1526 1527 1527 1528 1529 1529 1530 1530 1531 1531 1531 1531 1531 1531
1488 1489 1489 1488 1488 1489 1490 1493 1494 1494 1494 1494 1495 1496 1498 1499 1500 1502 1503 1504 1506 1508 1509 1511 1512 1513 1515 1516 1517 1518 1519 1520 1521 1522 1524 1524 1525 1526 1526 1527 1528 1528 1529 1530 1530 1530 1530 1530 1530
1489 1492 1493 1490 1488 1489 1493 1497 1494 1494 1494 1494 1495 1496 1497 1499 1500 1502 1503 1504 1506 1507 1508 1510 1511 1512 1514 1515 1516 1516 1517 1518 1520 1521 1522 1523 1524 1524 1525 1525 1526 1527 1527 1528 1528 1528 1528 1528 1528
1493 1496 1495 1492 1489 1489 1493 1495 1494 1493 1494 1494 1495 1496 1497 1499 1500 1501 1502 1504 1505 1506 1507 1508 1510 1511 1512 1513 1514 1515 1516 1517 1518 1520 1521 1521 1522 1523 1523 1524 1525 1525 1526 1526 1527 1527 1527 1527 1527
1495 1496 1495 1494 1491 1491 1493 1495 1494 1493 1493 1494 1495 1496 1497 1498 1499 1500 1502 1503 1504 1506 1507 1507 1509 1510 1511 1512 1513 1514 1515 1516 1517 1518 1518 1519 1520 1521 1522 1522 1523 1524 1524 1525 1525 1526 1526 1526 1526
1492 1495 1496 1494 1491 1492 1493 1494 1494 1493 1493 1494 1495 1496 1497 1498 1499 1500 1501 1502 1503 1504 1505 1506 1507 1508 1509 1510 1511 1512 1513 1514 1516 1516 1516 1517 1518 1519 1520 1521 1521 1522 1523 1523 1524 1524 1525 1524 1524
1491 1494 1496 1494 1491 1492 1494 1495 1493 1493 1493 1493 1494 1495 1496 1497 1498 1499 1500 1501 1502 1503 1504 1505 1506 1507 1508 1509 1510 1510 1512 1513 1514 1515 1515 1516 1517 1517 1518 1518 1519 1520 1521 1521 1522 1522 1522 1522 1522
1492 1494 1495 1496 1493 1493 1494 1495 1494 1493 1492 1493 1493 1494 1495 1496 1496 1497 1498 1500 1501 1501 1502 1504 1505 1506 1507 1508 1508 1509 1510 1511 1512 1513 1514 1514 1515 1516 1516 1516 1517 1518 1518 1519 1520 1520 1520 1520 1521
1494 1492 1493 1494 1497 1500 1498 1502 1495 1494 1493 1492 1492 1493 1493 1494 1495 1496 1497 1498 1499 1500 1501 1502 1503 1504 1505 1506 1506 1507 1508 1509 1509 1511 1512 1513 1513 1514 1514 1515 1516 1516 1516 1517 1518 1518 1519 1519 1519
1496 1494 1494 1495 1499 1503 1502 1504 1498 1495 1494 1492 1491 1491 1492 1493 1494 1495 1496 1497 1498 1499 1500 1501 1502 1503 1504 1504 1505 1506 1507 1507 1508 1509 1510 1511 1512 1512 1512 1513 1513 1514 1515 1515 1516 1516 1517 1518 1518
1496 1496 1496 1499 1502 1506 1502 1505 1501 1497 1493 1490 1489 1489 1490 1491 1492 1493 1494 1496 1497 1498 1499 1500 1500 1501 1502 1503 1503 1504 1505 1506 1507 1507 1508 1509 1509 1510 1510 1511 1511 1512 1513 1513 1514 1514 1515 1515 1516
1499 1502 1506 1507 1510 1507 1503 1503 1500 1491 1490 1489 1488 1488 1488 1489 1490 1491 1492 1493 1494 1496 1497 1498 1499 1499 1500 1501 1502 1502 1504 1505 1505 1505 1506 1507 1507 1507 1508 1509 1509 1510 1511 1511 1512 1512 1512 1513 1513
1502 1503 1509 1510 1511 1509 1505 1504 1496 1490 1488 1488 1487 1487 1487 1488 1489 1490 1491 1492 1493 1494 1495 1496 1497 1498 1499 1499 1500 1501 1502 1503 1503 1504 1504 1505 1505 1505 1506 1507 1507 1508 1509 1509 1509 1509 1510 1510 1510
1502 1506 1507 1513 1515 1514 1508 1505 1495 1489 1488 1487 1487 1487 1487 1487 1488 1489 1490 1491 1492 1492 1493 1494 1495 1496 1497 1497 1498 1499 1500 1501 1502 1502 1502 1503 1503 1504 1504 1505 1505 1506 1506 1507 1507 1507 1507 1508 1508
1503 1506 1510 1513 1513 1511 1506 1504 1500 1492 1491 1489 1488 1487 1486 1487 1487 1488 1489 1490 1491 1492 1492 1493 1494 1494 1495 1496 1497 1497 1498 1499 1499 1500 1500 1501 1501 1501 1502 1502 1503 1503 1504 1504 1505 1505 1505 1505 1505
1507 1508 1510 1514 1514 1514 1511 1503 1495 1493 1491 1490 1489 1488 1488 1487 1487 1488 1488 1489 1490 1490 1491 1491 1492 1492 1493 1494 1495 1495 1496 1496 1497 1497 1498 1498 1498 1499 1499 1500 1500 1501 1501 1502 1502 1502 1502 1502 1502
1506 1508 1510 1513 1515 1518 1514 1506 1493 1492 1490 1489 1489 1488 1488 1487 1487 1488 1488 1488 1489 1489 1489 1489 1490 1490 1491 1492 1493 1493 1494 1494 1495 1495 1496 1496 1496 1496 1497 1497 1498 1498 1499 1499 1499 1499 1499 1499 1499